Location: Dackenheim
(49.5215°N, 8.1854°E)
Time: 04:09:09
(UTC+00:00)

UWE-3 - Pass Details

Date: 23 March 2026
Orbit: 543 x 612 km, 97.9° (Epoch: 13 April)

Event Time Altitude Azimuth Distance (km) Brightness Sun altitude
Rises 01:24:49 0° 25° (NNE) 2,868 ? -34.2°
Reaches altitude 10° 01:27:26 10° 40° (NE) 1,948 ? -33.9°
Enters shadow 01:29:19 19° 64° (ENE) 1,453 ? -33.8°
